DELTA 1 DEB, 7061

Orbit data source: Space-Track

DELTA 1 DEB, 7061 is space debris in SSO originally from a launch on Tue, 06 Nov 1973 UTC launched from the Air Force Western Test Range (AFWTR). Debris objects in space refer to the collection of defunct objects orbiting the Earth. Examples of debris include non-operational satellites, rocket bodies, and fragments generated from explosions, collisions, or faulty payload assembly.

Loading next visibility...
Identifier
7061, 1973-086BD
Orbit
SSO
Country
Flag of USUS
Related business
Manufacturer
Unknown
Mission
Spacecraft
Bus & Motor
Unknown
Mass
Unknown
Launch date (UTC)
1973-11-06 (53 years ago)
Launch vehicle
Unknown
Launch site
Air Force Western Test Range (AFWTR)
Object type
Payload
Rocket body
Debris
Shape & HBR
Unknown shape, 0.2 m
Radar Cross Section
Medium (>0.1 m² and <1 m²)

Expand to show TLE details & history
Last TLE update: 20 hours ago

TLE from 20 hours ago
0 DELTA 1 DEB
1 07061U 73086BD  26206.59931897 -.00000084  00000-0 -19712-3 0  9992
2 07061 102.4605 100.5262 0140266 274.3970 202.4157 12.56192871412573
Epoch: 2026-07-25T14:23Z
TLE epoch observation values (Epoch: 2026-07-25T14:23:01.159Z)
Latitude
61.25915°
Longitude
145.10131°
Altitude
1,550.549 km
Speed
7.051 km/s
True Right ascension
20h 16m 39s
True Declination
61° 07' 42"
Sunlit
Object was in daylight at epoch
Visualization orbit readout
Latitude
Unknown
Longitude
Unknown
Altitude
Unknown
Speed
Unknown
Apparent Right ascension
Unknown
Apparent Declination
Unknown
Sunlit
N/A
Visualization observer readout
Local Sidereal Time
23:18:33
Azimuth
Unknown
Elevation
Unknown
Doppler factor
Unknown
Orbital elements
Apogee altitude
1,545.889 km
Perigee altitude
1,326.67 km
Semi-major axis
7,814.416 km
Eccentricity
0.01403
Inclination
102.4605°
RAAN
100.5262°
Arg. of periapsis
274.397°
True anomaly
201.81258°
Mean anomaly
202.4157°
Eccentric anomaly
202.11317°
Mean motion
3.14194 °/min
Orbital period
114.58 mins
BSTAR
-0.00019712
Loading maneuver chart data...
Computing Atmospheric mass density...
Loading historical data...
Loading historical data...
Loading historical data...
Loading historical data...
Loading historical data...
Loading historical data...
Loading historical data...

Documentation

Showing up to 5 results
|